sat.trackr.live / text

‹ back to catalog

COSMOS 2514 (751)

NORAD 41330 · 2016-008A

PAYLOAD ACTIVE UNKNOWN

§ Identity

Operator
Country
CIS
Launch date
2016-02-07
Launch site
PLMSC
Launch vehicle
Mass (kg)
RCS (m²)
11.29

Purposes: nav

External: N2YO · Heavens-Above · Gunter

§ Orbital elements

Epoch: 2026-09-20T01:49:03.428832Z

Period
675.73 min
Inclination
64.9604°
Eccentricity
0.0013736
Mean motion
2.13102932 rev/d
Perigee alt
19,094.8 km
Apogee alt
19,164.9 km
Semi-major
25,508.0 km
B*
0.0000e+0
RAAN
309.7448°
Arg perigee
210.8516°
Mean anomaly
149.1400°
Rev number
8,264

§ Raw data

COSMOS 2514 (751)1 41330U 16008A   26263.07573413 -.00000022  00000+0  00000+0 0  99982 41330  64.9604 309.7448 0013736 210.8516 149.1400  2.13102932 82642

JSON: /api/v1/satellites/41330 · /tle

For live sub-satellite position, see the globe view (requires WebGL).

§ Visibility from observer

Set your observer location to see the next 7 days of passes ≥ 10°. The values pass through the URL so the page stays shareable.

No JS? Fill the form by hand. The geolocation button needs JavaScript.